[[{"header":{"parameterUnit":"m.s-1","parameterCategory":2,"la1":30.2991,"la2":30.254,"lo1":-89.0895,"lo2":-89.0444,"dx":0.0017,"dy":0.0017,"nx":28,"ny":28,"refTime":"2022-12-13T09:00:00:Z","depth":"0","parameterNumber":2,"parameterNumberName":"U-component_of_CURRENTS"},"data":[0,0,0,0,0,0,0,0,0,0,0,0,0,0,0,0,0,0,0,0,0,0,0,0,0,0,0,0,0,0,0,0,0,0,0,0,0,0,0,0,0,0,0,0,0,0,0,0,0,0,0,0,0,0,0,0,0,0,0.1419,0.1419,0,0.1416,0.1416,0.1416,0.1406,0.1406,0.1406,0.1406,0.1376,0.1375,0.1374,0,0,0,0,0,0,0,0,0,0,0,0,0,0.1385,0.1386,0.1419,0.1419,0.1419,0.1416,0.1416,0.1416,0.1406,0.1406,0.1406,0.1406,0.1376,0.1375,0.1374,0,0,0,0,0,0,0,0,0,0,0,0,0,0.1391,0.1386,0.1419,0.1415,0.1415,0.1416,0.1416,0.1416,0.1406,0.1406,0.1406,0.1406,0.1376,0.1375,0.1374,0.1368,0,0,0.137,0.137,0,0,0,0,0,0,0,0,0.1391,0.1392,0.1416,0.1416,0.1415,0.1413,0.1393,0.1399,0.1406,0.1407,0.1406,0.1406,0.1387,0.1385,0.1382,0.1366,0.1365,0.137,0.137,0.1369,0.1369,0,0,0,0,0,0,0,0.139,0.1392,0.1415,0.1416,0.1416,0.1404,0.1405,0.1394,0.1395,0.1407,0.1407,0.141,0.1387,0.1383,0.1381,0.1364,0.137,0.1369,0.1369,0.1368,0.1354,0.1354,0,0,0,0,0,0,0.1397,0.1392,0.1416,0.1416,0.1405,0.1405,0.1406,0.1412,0.1396,0.1394,0.141,0.141,0.1385,0.1383,0.138,0.1389,0.1369,0.1368,0.1367,0.1353,0.1354,0.1354,0,0,0,0,0,0,0.1396,0.1399,0.1416,0.1405,0.1407,0.1406,0.1413,0.1412,0.1412,0.1399,0.1396,0.1412,0.1385,0.1382,0.1374,0.1387,0.1367,0.1366,0.1353,0.1354,0.1354,0.1397,0,0,0,0,0,0,0.1395,0.1399,0.1404,0.1406,0.1407,0.1418,0.1413,0.1412,0.1415,0.1414,0.1399,0.1396,0.1385,0.1376,0.1373,0.1386,0.1366,0.1353,0.1353,0.1354,0.1395,0.1398,0.1402,0,0,0,0,0,0.1394,0.1404,0.1404,0.1407,0.1415,0.1418,0.1417,0.1415,0.1415,0.1415,0.1406,0.1397,0.1377,0.1375,0.1371,0.1384,0.1352,0.1353,0.1354,0.1393,0.1398,0.1402,0,0,0,0,0,0,0.1393,0.1404,0.1405,0.1418,0.1418,0.1417,0.1419,0.1418,0.1412,0.1412,0.1398,0.1394,0.1393,0.1381,0.1378,0.1381,0.1364,0.1365,0.1396,0.14,0.1403,0.1427,0.1365,0,0,0,0,0,0.1396,0.1404,0.141,0.1419,0.1422,0.1421,0.1422,0.1422,0.1418,0.1415,0.1405,0.1397,0.1393,0.139,0.1379,0.138,0.1407,0.1386,0.1389,0.1392,0.1409,0.1438,0.1446,0.1357,0.1357,0.1357,0,0,0.1397,0.1405,0.1408,0.1419,0.1419,0.1427,0.1421,0.1426,0.1434,0.1413,0.1416,0.1405,0.1394,0.1396,0.1395,0.1388,0.1441,0.1393,0.1396,0.1412,0.144,0.1449,0.1457,0.1357,0.1357,0.1357,0,0,0.1403,0.1411,0.142,0.1424,0.1432,0.1433,0.1436,0.1437,0.144,0.144,0.1432,0.1429,0.1416,0.1416,0.1414,0.1429,0.1455,0.1427,0.1468,0.1495,0.1503,0.1511,0.1599,0.1613,0.1432,0.1432,0.1432,0,0.1404,0.142,0.1421,0.1433,0.1445,0.1438,0.1454,0.1453,0.1451,0.1465,0.1444,0.1451,0.1428,0.1454,0.1456,0.1438,0.1483,0.1454,0.1502,0.1509,0.1516,0.1604,0.162,0.1434,0.1434,0.1434,0.1433,0,0.1418,0.1432,0.1439,0.1454,0.1464,0.1475,0.1482,0.1488,0.1488,0.1495,0.1515,0.1491,0.1502,0.1489,0.1475,0.1518,0.1548,0.1502,0.1496,0.1528,0.1619,0.1634,0.1437,0.1436,0.1436,0.1435,0,0,0.142,0.1444,0.1447,0.1464,0.1481,0.1492,0.1511,0.1537,0.1568,0.1555,0.1602,0.1577,0.158,0.1578,0.1564,0.1581,0.1664,0.157,0.1571,0.1669,0.1788,0.1882,0.1908,0.1632,0.1634,0.1635,0.1848,0,0.1432,0.1458,0.1474,0.1504,0.152,0.1535,0.1564,0.1587,0.16,0.1638,0.1633,0.1663,0.1611,0.163,0.1636,0.1655,0.1702,0.1615,0.1733,0.1739,0.1825,0.1927,0.1916,0.211,0.1863,0.1866,0.1868,0,0.1442,0.1462,0.1495,0.1545,0.1557,0.1578,0.1636,0.1662,0.1711,0.1729,0.1756,0.1764,0.1805,0.1741,0.1814,0.1769,0.1792,0.1801,0.1808,0.1891,0.186,0.2028,0.2148,0.2158,0.1892,0.189,0.1888,0,0.1442,0.148,0.1511,0.1523,0.1575,0.1605,0.1637,0.169,0.1737,0.18,0.1855,0.1884,0.1933,0.194,0.197,0.1902,0.2071,0.1969,0.2089,0.2098,0.2112,0.2118,0.226,0.2035,0.2034,0.2034,0.2033,0,0.1453,0.1476,0.1512,0.153,0.1581,0.1621,0.1688,0.1724,0.1807,0.189,0.191,0.1996,0.1983,0.2072,0.2052,0.2169,0.2146,0.2149,0.2166,0.2131,0.2137,0.2161,0.2128,0.2042,0.204,0.2039,0.2037,0,0.1451,0.147,0.151,0.1565,0.1581,0.1622,0.1711,0.1772,0.1853,0.1967,0.2006,0.2118,0.225,0.2279,0.2338,0.2319,0.2357,0.2421,0.2426,0.2439,0.2519,0.2487,0.2504,0.2419,0.2584,0.2588,0.2591,0,0.1454,0.1471,0.1524,0.155,0.1575,0.1634,0.1689,0.1774,0.185,0.2048,0.2119,0.2301,0.2414,0.2593,0.2614,0.2686,0.2545,0.2715,0.2554,0.2586,0.2561,0.2372,0.228,0.2606,0.2609,0.2611,0.2613,0,0.1456,0.1473,0.15,0.1556,0.1605,0.166,0.1743,0.1805,0.1943,0.2054,0.2228,0.2344,0.2587,0.2685,0.2834,0.2842,0.2635,0.2769,0.2775,0.2601,0.2428,0.2333,0.2443,0.2635,0.2633,0.2631,0.263,0.2629,0.1447,0.1466,0.1502,0.1554,0.1606,0.1668,0.1704,0.1816,0.1925,0.2096,0.2239,0.2416,0.2677,0.2884,0.2894,0.2988,0.2817,0.2921,0.2893,0.2707,0.2581,0.2793,0.3005,0.3005,0.3005,0.3005,0.3005,0,0.144,0.1458,0.1502,0.1549,0.1596,0.1635,0.1731,0.1768,0.1872,0.2089,0.2223,0.2536,0.273,0.2913,0.3144,0.3127,0.2864,0.3075,0.2786,0.269,0.2897,0.2857,0.308,0.308,0.308,0.308,0.308,0.308,0.1431,0.1455,0.1479,0.1517,0.1555,0.1593,0.1632,0.1695,0.1832,0.205,0.2264,0.245,0.2885,0.3238,0.3357,0.3262,0.2991,0.2915,0.2819,0.2994,0.2974,0.2955,0.2911,0.3142,0.3142,0.2484,0.248,0.2477]},{"header":{"parameterUnit":"m.s-1","parameterCategory":2,"la1":30.2991,"la2":30.254,"lo1":-89.0895,"lo2":-89.0444,"dx":0.0017,"dy":0.0017,"nx":28,"ny":28,"refTime":"2022-12-13T09:00:00:Z","depth":"0","parameterNumber":3,"parameterNumberName":"V-component_of_CURRENTS"},"data":[0,0,0,0,0,0,0,0,0,0,0,0,0,0,0,0,0,0,0,0,0,0,0,0,0,0,0,0,0,0,0,0,0,0,0,0,0,0,0,0,0,0,0,0,0,0,0,0,0,0,0,0,0,0,0,0,0,0,-0.0279,-0.028,0,-0.0341,-0.0342,-0.0342,-0.0382,-0.0383,-0.0383,-0.0383,-0.0463,-0.0465,-0.0467,0,0,0,0,0,0,0,0,0,0,0,0,0,-0.0223,-0.0224,-0.0279,-0.028,-0.0281,-0.0341,-0.0342,-0.0342,-0.0382,-0.0383,-0.0383,-0.0383,-0.0462,-0.0465,-0.0467,0,0,0,0,0,0,0,0,0,0,0,0,0,-0.0263,-0.0224,-0.0279,-0.0308,-0.0311,-0.0341,-0.0342,-0.0343,-0.0382,-0.0383,-0.0383,-0.0383,-0.0462,-0.0464,-0.0467,-0.0478,0,0,-0.0476,-0.0477,0,0,0,0,0,0,0,0,-0.026,-0.0265,-0.0303,-0.0306,-0.0309,-0.0354,-0.0351,-0.0389,-0.0382,-0.0355,-0.0383,-0.0383,-0.0428,-0.0434,-0.0444,-0.0482,-0.0485,-0.0476,-0.0478,-0.0479,-0.048,0,0,0,0,0,0,0,-0.0257,-0.0262,-0.0304,-0.0303,-0.0307,-0.0327,-0.0332,-0.0359,-0.0389,-0.0358,-0.0361,-0.0367,-0.043,-0.0441,-0.0447,-0.0486,-0.0476,-0.0479,-0.048,-0.0482,-0.0571,-0.0571,0,0,0,0,0,0,-0.0248,-0.026,-0.0302,-0.0306,-0.0285,-0.0327,-0.0334,-0.034,-0.0389,-0.0396,-0.0367,-0.0369,-0.0436,-0.0443,-0.045,-0.05,-0.0479,-0.0482,-0.0484,-0.057,-0.0571,-0.0571,0,0,0,0,0,0,-0.0246,-0.0251,-0.0299,-0.0284,-0.0291,-0.0328,-0.0334,-0.0341,-0.0351,-0.0395,-0.0404,-0.037,-0.0437,-0.0446,-0.0477,-0.0502,-0.0483,-0.0486,-0.0569,-0.057,-0.0571,-0.0579,0,0,0,0,0,0,-0.0244,-0.025,-0.0248,-0.0283,-0.0292,-0.0313,-0.0334,-0.0341,-0.0354,-0.0358,-0.0401,-0.0409,-0.0438,-0.0472,-0.0479,-0.0506,-0.0488,-0.0568,-0.057,-0.0571,-0.0578,-0.0581,-0.0582,0,0,0,0,0,-0.0242,-0.0236,-0.0248,-0.0253,-0.0289,-0.0313,-0.0319,-0.0346,-0.0354,-0.0357,-0.0391,-0.0408,-0.0485,-0.0475,-0.0483,-0.0511,-0.0568,-0.0569,-0.0571,-0.0577,-0.058,-0.0582,0,0,0,0,0,0,-0.021,-0.024,-0.0254,-0.0257,-0.0282,-0.0319,-0.0323,-0.0341,-0.0369,-0.0372,-0.0412,-0.0422,-0.0461,-0.0478,-0.0466,-0.054,-0.0531,-0.0534,-0.0533,-0.0536,-0.0538,-0.053,-0.049,0,0,0,0,0,-0.0202,-0.0204,-0.024,-0.0241,-0.0252,-0.0286,-0.0297,-0.0317,-0.0347,-0.0359,-0.0393,-0.0431,-0.0473,-0.0496,-0.0528,-0.0564,-0.0568,-0.0588,-0.059,-0.0592,-0.0591,-0.0623,-0.0628,-0.0576,-0.0576,-0.0576,0,0,-0.0191,-0.0206,-0.0209,-0.0234,-0.0255,-0.0275,-0.0293,-0.0308,-0.0332,-0.0364,-0.04,-0.0434,-0.0482,-0.0528,-0.0548,-0.0547,-0.0605,-0.0594,-0.0595,-0.0593,-0.0625,-0.063,-0.0635,-0.0577,-0.0577,-0.0577,0,0,-0.0169,-0.0182,-0.018,-0.0203,-0.023,-0.0256,-0.0258,-0.0296,-0.032,-0.0357,-0.0393,-0.0438,-0.0493,-0.0541,-0.0572,-0.0601,-0.0611,-0.0613,-0.0626,-0.0658,-0.0662,-0.0666,-0.066,-0.0664,-0.062,-0.062,-0.062,0,-0.0156,-0.0159,-0.0183,-0.0193,-0.0209,-0.0246,-0.0256,-0.029,-0.0335,-0.0356,-0.0367,-0.0462,-0.0504,-0.0573,-0.0595,-0.0607,-0.0611,-0.0614,-0.066,-0.0665,-0.0669,-0.0661,-0.0665,-0.0621,-0.0621,-0.0621,-0.0621,0,-0.0142,-0.0147,-0.0147,-0.0176,-0.0197,-0.0207,-0.0259,-0.028,-0.0312,-0.0353,-0.0415,-0.0475,-0.0529,-0.0563,-0.0596,-0.0654,-0.064,-0.0654,-0.0652,-0.0674,-0.0665,-0.0669,-0.0622,-0.0622,-0.0621,-0.0621,0,0,-0.011,-0.0132,-0.0134,-0.0137,-0.0187,-0.0198,-0.0239,-0.0285,-0.0299,-0.0371,-0.0398,-0.0506,-0.0534,-0.057,-0.0617,-0.0665,-0.0703,-0.0676,-0.0678,-0.0666,-0.0745,-0.0726,-0.0728,-0.0726,-0.0728,-0.0728,-0.0721,0,-0.0093,-0.0089,-0.0118,-0.0126,-0.0128,-0.0178,-0.0209,-0.026,-0.0302,-0.0336,-0.0427,-0.0466,-0.0539,-0.0554,-0.0624,-0.0672,-0.0716,-0.0702,-0.0729,-0.0729,-0.0708,-0.0734,-0.0726,-0.0718,-0.0724,-0.0725,-0.0725,0,-0.0079,-0.0071,-0.0068,-0.0084,-0.0092,-0.0109,-0.0144,-0.0177,-0.025,-0.0282,-0.0355,-0.0406,-0.0495,-0.0538,-0.0656,-0.0641,-0.0698,-0.0743,-0.0744,-0.0727,-0.0719,-0.0702,-0.0725,-0.0897,-0.0731,-0.0731,-0.073,0,-0.003,-0.0042,-0.0028,-0.0039,-0.0069,-0.0075,-0.0096,-0.0157,-0.0163,-0.0234,-0.0226,-0.0356,-0.0374,-0.0494,-0.0601,-0.0624,-0.0705,-0.074,-0.0776,-0.0773,-0.0772,-0.0768,-0.0964,-0.0822,-0.0822,-0.0823,-0.0823,0,-0.0004,0.0006,0.0003,0.001,0.0026,-0.0018,-0.0008,-0.005,-0.0077,-0.0058,-0.0183,-0.0173,-0.0364,-0.0433,-0.0564,-0.0668,-0.0674,-0.0778,-0.0781,-0.0772,-0.0768,-0.0921,-0.1011,-0.0822,-0.0822,-0.0822,-0.0822,0,0.0036,0.0031,0.0055,0.0051,0.0051,0.0064,0.007,0.0091,0.005,0.0083,0.0077,-0.0021,-0.011,-0.0286,-0.0447,-0.0578,-0.0792,-0.0736,-0.0695,-0.0695,-0.0904,-0.0992,-0.1162,-0.1244,-0.0781,-0.078,-0.078,0,0.0054,0.0077,0.01,0.0127,0.0129,0.015,0.0178,0.0151,0.0193,0.0194,0.0234,0.0159,0.0126,-0.0109,-0.0359,-0.0571,-0.0753,-0.0704,-0.077,-0.0921,-0.1022,-0.1097,-0.116,-0.076,-0.076,-0.076,-0.0759,0,0.0096,0.0109,0.0132,0.0202,0.0243,0.0293,0.034,0.0396,0.0398,0.0441,0.0494,0.0473,0.0247,0.0029,-0.0277,-0.045,-0.0833,-0.0702,-0.0888,-0.1052,-0.1117,-0.1193,-0.0735,-0.0756,-0.0756,-0.0757,-0.0757,-0.0757,0.0127,0.0162,0.0211,0.0279,0.0342,0.0441,0.0514,0.0584,0.0675,0.0766,0.0718,0.0732,0.0385,-0.0037,-0.0305,-0.0783,-0.0803,-0.094,-0.1036,-0.1099,-0.1194,-0.0709,-0.072,-0.072,-0.072,-0.072,-0.072,0,0.016,0.0214,0.029,0.0389,0.05,0.0504,0.0634,0.0728,0.0873,0.0945,0.0994,0.0857,0.0417,-0.0042,-0.0666,-0.1039,-0.1214,-0.1265,-0.1404,-0.1455,-0.1048,-0.1065,-0.1114,-0.1114,-0.1114,-0.1114,-0.1113,-0.1113,0.0181,0.0265,0.0323,0.0517,0.0599,0.0755,0.0842,0.0971,0.1063,0.1197,0.1229,0.1206,0.0905,-0.0315,-0.1182,-0.1413,-0.1692,-0.1756,-0.1898,-0.1657,-0.1636,-0.1615,-0.1656,-0.1828,-0.1829,-0.2274,-0.2279,-0.2282]}],[{"header":{"parameterUnit":"m.s-1","parameterCategory":2,"la1":30.2991,"la2":30.254,"lo1":-89.0895,"lo2":-89.0444,"dx":0.0017,"dy":0.0017,"nx":28,"ny":28,"refTime":"2022-12-13T09:00:00:Z","depth":"2","parameterNumber":2,"parameterNumberName":"U-component_of_CURRENTS"},"data":[0,0,0,0,0,0,0,0,0,0,0,0,0,0,0,0,0,0,0,0,0,0,0,0,0,0,0,0,0,0,0,0,0,0,0,0,0,0,0,0,0,0,0,0,0,0,0,0,0,0,0,0,0,0,0,0,0,0,0.1328,0.1328,0,0.133,0.133,0.1329,0.1324,0.1324,0.1324,0.1324,0.1297,0.1296,0.1295,0,0,0,0,0,0,0,0,0,0,0,0,0,0.1291,0.1292,0.1328,0.1328,0.1328,0.133,0.133,0.1329,0.1324,0.1324,0.1324,0.1324,0.1297,0.1296,0.1295,0,0,0,0,0,0,0,0,0,0,0,0,0,0.1299,0.1292,0.1328,0.1328,0.1328,0.133,0.133,0.1329,0.1324,0.1324,0.1324,0.1325,0.1297,0.1296,0.1295,0.1286,0,0,0.1291,0.1291,0,0,0,0,0,0,0,0,0.1299,0.13,0.1328,0.1328,0.1328,0.1329,0.1307,0.1314,0.1324,0.1323,0.1324,0.1325,0.1306,0.1304,0.1301,0.1284,0.1283,0.1291,0.1291,0.129,0.129,0,0,0,0,0,0,0,0.1298,0.13,0.1326,0.1328,0.1328,0.1318,0.1319,0.1308,0.1312,0.1323,0.1323,0.1328,0.1306,0.1303,0.1301,0.1283,0.1291,0.129,0.1289,0.1289,0.1274,0.1275,0,0,0,0,0,0,0.1305,0.13,0.1326,0.1326,0.1316,0.1319,0.132,0.1327,0.1312,0.1311,0.1327,0.1327,0.1305,0.1302,0.13,0.1311,0.129,0.1289,0.1288,0.1274,0.1274,0.1275,0,0,0,0,0,0,0.1304,0.1307,0.1326,0.1315,0.1317,0.132,0.1327,0.1327,0.1329,0.1316,0.1314,0.1331,0.1305,0.1301,0.1294,0.1309,0.1288,0.1287,0.1274,0.1274,0.1275,0.1319,0,0,0,0,0,0,0.1303,0.1307,0.1313,0.1316,0.1318,0.1329,0.1327,0.1327,0.1332,0.1332,0.1319,0.1316,0.1304,0.1296,0.1293,0.1307,0.1286,0.1273,0.1274,0.1274,0.1318,0.1321,0.1325,0,0,0,0,0,0.1302,0.1312,0.1314,0.1317,0.1327,0.133,0.133,0.133,0.1332,0.1333,0.1326,0.1317,0.1298,0.1295,0.1292,0.1306,0.1273,0.1274,0.1274,0.1316,0.1321,0.1325,0,0,0,0,0,0,0.1301,0.1312,0.1315,0.1328,0.133,0.133,0.1333,0.1334,0.1329,0.1331,0.1317,0.1314,0.1314,0.1301,0.1298,0.1303,0.1285,0.1285,0.1318,0.1322,0.1326,0.1352,0.1285,0,0,0,0,0,0.1304,0.1312,0.132,0.1329,0.1333,0.1333,0.1336,0.1337,0.1335,0.1333,0.1325,0.1317,0.1313,0.1311,0.13,0.1301,0.1328,0.1308,0.1312,0.1315,0.1333,0.1362,0.137,0.1277,0.1277,0.1277,0,0,0.1304,0.1314,0.1317,0.1329,0.1331,0.1339,0.1334,0.1341,0.1351,0.133,0.1336,0.1326,0.1315,0.1317,0.1317,0.131,0.1364,0.1316,0.1319,0.1336,0.1364,0.1373,0.1381,0.1278,0.1278,0.1277,0,0,0.131,0.1319,0.1328,0.1334,0.1344,0.1345,0.135,0.1353,0.1357,0.1359,0.1352,0.1352,0.1339,0.134,0.1338,0.1354,0.1379,0.1352,0.1395,0.1422,0.143,0.1438,0.1526,0.1541,0.1356,0.1356,0.1356,0,0.1312,0.1328,0.133,0.1344,0.1357,0.1351,0.1368,0.1368,0.1368,0.1384,0.1365,0.1374,0.1351,0.1379,0.1383,0.1364,0.1408,0.138,0.1429,0.1437,0.1444,0.1531,0.1548,0.1358,0.1358,0.1358,0.1358,0,0.1326,0.1342,0.1348,0.1366,0.1377,0.1388,0.1396,0.1404,0.1406,0.1416,0.1439,0.1415,0.1429,0.1417,0.1403,0.1448,0.1476,0.1429,0.1423,0.1456,0.1547,0.1563,0.1362,0.1361,0.136,0.136,0,0,0.1328,0.1354,0.1357,0.1375,0.1394,0.1406,0.1426,0.1453,0.1486,0.1476,0.1526,0.1504,0.1509,0.1508,0.1495,0.1513,0.1598,0.1501,0.1501,0.16,0.1722,0.1801,0.1827,0.1564,0.1566,0.1568,0.1781,0,0.1341,0.137,0.1385,0.1417,0.1433,0.145,0.1479,0.1505,0.152,0.1561,0.1558,0.1592,0.154,0.1562,0.1569,0.1589,0.1636,0.1549,0.1665,0.1671,0.1744,0.1845,0.163,0.1806,0.1797,0.1799,0.1801,0,0.1353,0.1374,0.1408,0.1459,0.1472,0.1494,0.1553,0.1581,0.1635,0.1655,0.1686,0.1696,0.174,0.1675,0.175,0.1704,0.1728,0.1736,0.1744,0.1813,0.1778,0.1761,0.1836,0.1828,0.1826,0.1824,0.1822,0,0.1353,0.1393,0.1424,0.1438,0.1491,0.1522,0.1555,0.1611,0.1661,0.1729,0.1786,0.1818,0.1869,0.1876,0.1907,0.1839,0.2008,0.1906,0.2014,0.2022,0.1861,0.1851,0.1973,0.1973,0.1973,0.1972,0.1971,0,0.1364,0.139,0.1426,0.1445,0.1498,0.154,0.1611,0.1649,0.1735,0.1822,0.1844,0.1931,0.192,0.2008,0.1989,0.2098,0.2083,0.2073,0.2088,0.1876,0.1867,0.1877,0.1863,0.198,0.1978,0.1977,0.1975,0,0.1364,0.1383,0.1425,0.1482,0.1498,0.1543,0.1637,0.17,0.1785,0.1901,0.1942,0.2054,0.2182,0.221,0.227,0.2246,0.2304,0.2341,0.2142,0.213,0.228,0.2265,0.2481,0.2486,0.249,0.2493,0.2496,0,0.1368,0.1385,0.1441,0.1468,0.1496,0.1559,0.1615,0.1704,0.1781,0.1982,0.2052,0.2232,0.2336,0.2507,0.2485,0.2542,0.2496,0.2403,0.2213,0.2344,0.2335,0.2314,0.2294,0.2028,0.2026,0.2025,0.2024,0,0.1372,0.1391,0.1418,0.1479,0.153,0.1587,0.1673,0.1734,0.1875,0.1981,0.2153,0.2262,0.2461,0.2433,0.2556,0.2532,0.2367,0.2392,0.2575,0.1946,0.1937,0.1921,0.1913,0.2015,0.2016,0.2017,0.2017,0.2018,0.1365,0.1386,0.1424,0.148,0.1534,0.1597,0.1633,0.1727,0.183,0.1955,0.2114,0.2203,0.2284,0.235,0.2335,0.2323,0.2451,0.2298,0.229,0.2287,0.2211,0.2209,0.2329,0.2331,0.2334,0.2336,0.2337,0,0.1357,0.1382,0.1428,0.1477,0.1517,0.1568,0.1661,0.1659,0.1731,0.1863,0.1953,0.1867,0.1933,0.2025,0.1992,0.2053,0.1915,0.198,0.1734,0.1749,0.1762,0.1645,0.162,0.1618,0.1615,0.1613,0,0,0.1349,0.1371,0.1393,0.1429,0.1476,0.1494,0.1531,0.1523,0.1574,0.1573,0.1611,0.1768,0.1942,0.1703,0.1728,0.1664,0.1668,0.161,0.2192,0.1914,0.1922,0.1972,0.1818,0,0,0,0,0]},{"header":{"parameterUnit":"m.s-1","parameterCategory":2,"la1":30.2991,"la2":30.254,"lo1":-89.0895,"lo2":-89.0444,"dx":0.0017,"dy":0.0017,"nx":28,"ny":28,"refTime":"2022-12-13T09:00:00:Z","depth":"2","parameterNumber":3,"parameterNumberName":"V-component_of_CURRENTS"},"data":[0,0,0,0,0,0,0,0,0,0,0,0,0,0,0,0,0,0,0,0,0,0,0,0,0,0,0,0,0,0,0,0,0,0,0,0,0,0,0,0,0,0,0,0,0,0,0,0,0,0,0,0,0,0,0,0,0,0,-0.0187,-0.0188,0,-0.0251,-0.0252,-0.0252,-0.0296,-0.0296,-0.0297,-0.0297,-0.0379,-0.0381,-0.0383,0,0,0,0,0,0,0,0,0,0,0,0,0,-0.0133,-0.0134,-0.0187,-0.0188,-0.0189,-0.0251,-0.0252,-0.0252,-0.0296,-0.0296,-0.0297,-0.0297,-0.0379,-0.0381,-0.0383,0,0,0,0,0,0,0,0,0,0,0,0,0,-0.0173,-0.0134,-0.0187,-0.0218,-0.0221,-0.0251,-0.0252,-0.0253,-0.0296,-0.0296,-0.0297,-0.0297,-0.0378,-0.0381,-0.0384,-0.0391,0,0,-0.0392,-0.0393,0,0,0,0,0,0,0,0,-0.017,-0.0175,-0.0213,-0.0216,-0.022,-0.0266,-0.0263,-0.03,-0.0296,-0.0268,-0.0297,-0.0298,-0.0343,-0.0349,-0.0359,-0.0395,-0.0399,-0.0392,-0.0394,-0.0395,-0.0396,0,0,0,0,0,0,0,-0.0167,-0.0172,-0.0212,-0.0213,-0.0218,-0.0239,-0.0245,-0.027,-0.0302,-0.027,-0.0273,-0.028,-0.0345,-0.0356,-0.0362,-0.04,-0.0392,-0.0395,-0.0397,-0.0398,-0.0485,-0.0485,0,0,0,0,0,0,-0.0158,-0.0169,-0.021,-0.0214,-0.0196,-0.0239,-0.0246,-0.0251,-0.0302,-0.031,-0.028,-0.0282,-0.0351,-0.0358,-0.0365,-0.0417,-0.0395,-0.0398,-0.04,-0.0484,-0.0485,-0.0485,0,0,0,0,0,0,-0.0156,-0.016,-0.0208,-0.0194,-0.0201,-0.0239,-0.0245,-0.0252,-0.0264,-0.0309,-0.0317,-0.0285,-0.0352,-0.0361,-0.0392,-0.0419,-0.0399,-0.0402,-0.0483,-0.0484,-0.0485,-0.0495,0,0,0,0,0,0,-0.0154,-0.0159,-0.0159,-0.0193,-0.0201,-0.0223,-0.0244,-0.0253,-0.0268,-0.0271,-0.0316,-0.0324,-0.0353,-0.0387,-0.0395,-0.0422,-0.0404,-0.0483,-0.0484,-0.0485,-0.0494,-0.0496,-0.0498,0,0,0,0,0,-0.0152,-0.0146,-0.0159,-0.0164,-0.02,-0.0222,-0.0229,-0.0258,-0.0267,-0.0271,-0.0305,-0.0323,-0.04,-0.039,-0.0398,-0.0427,-0.0482,-0.0483,-0.0485,-0.0493,-0.0496,-0.0498,0,0,0,0,0,0,-0.0122,-0.0151,-0.0165,-0.0169,-0.0194,-0.023,-0.0234,-0.0253,-0.0282,-0.0286,-0.0326,-0.0337,-0.0376,-0.0393,-0.0381,-0.0455,-0.0446,-0.0449,-0.0449,-0.0452,-0.0454,-0.0448,-0.0406,0,0,0,0,0,-0.0115,-0.0117,-0.0151,-0.0153,-0.0164,-0.0198,-0.021,-0.0231,-0.0261,-0.0274,-0.0308,-0.0346,-0.0388,-0.0411,-0.0442,-0.0478,-0.0483,-0.0503,-0.0505,-0.0506,-0.0507,-0.054,-0.0545,-0.049,-0.049,-0.049,0,0,-0.0105,-0.0119,-0.0122,-0.0147,-0.0167,-0.0187,-0.0206,-0.0222,-0.0246,-0.0278,-0.0315,-0.0349,-0.0396,-0.0442,-0.0462,-0.0462,-0.0521,-0.0508,-0.0509,-0.0509,-0.0542,-0.0547,-0.0552,-0.0491,-0.0491,-0.049,0,0,-0.0083,-0.0097,-0.0095,-0.0118,-0.0146,-0.017,-0.0172,-0.0211,-0.0235,-0.0272,-0.0308,-0.0355,-0.0408,-0.0456,-0.0486,-0.0515,-0.0526,-0.0527,-0.0542,-0.0574,-0.0579,-0.0583,-0.058,-0.0584,-0.0534,-0.0534,-0.0534,0,-0.0073,-0.0075,-0.0098,-0.0109,-0.0125,-0.0161,-0.0171,-0.0204,-0.025,-0.0272,-0.0283,-0.0378,-0.042,-0.0489,-0.0511,-0.0522,-0.0526,-0.053,-0.0577,-0.0581,-0.0586,-0.0581,-0.0585,-0.0535,-0.0535,-0.0535,-0.0535,0,-0.006,-0.0066,-0.0066,-0.0094,-0.0114,-0.0124,-0.0174,-0.0195,-0.0227,-0.027,-0.0332,-0.0392,-0.0447,-0.048,-0.0513,-0.0572,-0.0559,-0.057,-0.0569,-0.0592,-0.0585,-0.0589,-0.0536,-0.0536,-0.0535,-0.0535,0,0,-0.003,-0.0051,-0.0054,-0.0057,-0.0106,-0.0116,-0.0155,-0.02,-0.0216,-0.0287,-0.0317,-0.0424,-0.0454,-0.0489,-0.0537,-0.0585,-0.0626,-0.0596,-0.0598,-0.059,-0.0671,-0.0652,-0.0654,-0.0647,-0.0649,-0.065,-0.0648,0,-0.0015,-0.0012,-0.0039,-0.0048,-0.005,-0.0098,-0.0127,-0.0177,-0.022,-0.0257,-0.0346,-0.0389,-0.046,-0.0477,-0.0546,-0.0595,-0.0641,-0.0624,-0.0654,-0.0654,-0.0632,-0.066,-0.0625,-0.0621,-0.0652,-0.0653,-0.0654,0,-0.0002,0.0005,0.0008,-0.0009,-0.0016,-0.0033,-0.0067,-0.0101,-0.0175,-0.0208,-0.0282,-0.0334,-0.0424,-0.0465,-0.0585,-0.0568,-0.0626,-0.067,-0.0671,-0.0654,-0.0643,-0.0608,-0.0627,-0.0661,-0.066,-0.066,-0.0659,0,0.0044,0.0032,0.0046,0.0034,0.0005,-0.0002,-0.0021,-0.0083,-0.009,-0.0164,-0.0159,-0.0289,-0.0309,-0.0429,-0.0536,-0.0557,-0.0641,-0.0673,-0.0709,-0.0706,-0.0683,-0.0676,-0.0757,-0.0757,-0.0757,-0.0757,-0.0757,0,0.0069,0.0077,0.0074,0.008,0.0095,0.0051,0.0059,0.0016,-0.0012,0.0004,-0.0121,-0.0113,-0.0301,-0.0371,-0.05,-0.0605,-0.0611,-0.0713,-0.0715,-0.0682,-0.0676,-0.072,-0.0715,-0.0757,-0.0757,-0.0757,-0.0757,0,0.0106,0.0101,0.0123,0.0118,0.0118,0.0128,0.0134,0.0152,0.0109,0.014,0.0132,0.0034,-0.0056,-0.0231,-0.0392,-0.0519,-0.0642,-0.0677,-0.0609,-0.0605,-0.0694,-0.0691,-0.0724,-0.0724,-0.0723,-0.0723,-0.0723,0,0.0122,0.0144,0.0165,0.0191,0.0191,0.021,0.0237,0.021,0.025,0.0247,0.0287,0.0208,0.0173,-0.0062,-0.0305,-0.0515,-0.0576,-0.062,-0.0679,-0.0697,-0.0696,-0.0693,-0.069,-0.0639,-0.0639,-0.0638,-0.0637,0,0.0161,0.0173,0.0195,0.0261,0.0301,0.0349,0.0395,0.045,0.0451,0.049,0.0539,0.0513,0.029,0.0076,-0.0226,-0.0379,-0.0595,-0.061,-0.065,-0.0654,-0.0618,-0.0616,-0.0616,-0.063,-0.0631,-0.0631,-0.0632,-0.0632,0.019,0.0223,0.0271,0.0335,0.0396,0.0494,0.0565,0.0633,0.072,0.0793,0.0743,0.0716,0.044,0.0069,-0.0199,-0.0497,-0.0512,-0.0627,-0.063,-0.0633,-0.0624,-0.059,-0.0593,-0.0593,-0.0594,-0.0594,-0.0594,0,0.0224,0.0272,0.0346,0.0443,0.0555,0.0555,0.0683,0.0774,0.0913,0.0942,0.0971,0.0755,0.0485,0.0172,-0.0253,-0.0515,-0.0556,-0.0596,-0.0597,-0.0601,-0.0606,-0.0597,-0.0558,-0.0559,-0.0559,-0.056,0,0,0.0246,0.0329,0.0387,0.0578,0.0653,0.0811,0.0898,0.1012,0.1072,0.1138,0.1107,0.0979,0.0595,0.03,-0.0065,-0.0304,-0.0391,-0.0353,-0.0355,-0.0316,-0.0317,-0.0598,-0.0586,0,0,0,0,0]}],[{"header":{"parameterUnit":"m.s-1","parameterCategory":2,"la1":30.2991,"la2":30.254,"lo1":-89.0895,"lo2":-89.0444,"dx":0.0017,"dy":0.0017,"nx":28,"ny":28,"refTime":"2022-12-13T09:00:00:Z","depth":"4","parameterNumber":2,"parameterNumberName":"U-component_of_CURRENTS"},"data":[0,0,0,0,0,0,0,0,0,0,0,0,0,0,0,0,0,0,0,0,0,0,0,0,0,0,0,0,0,0,0,0,0,0,0,0,0,0,0,0,0,0,0,0,0,0,0,0,0,0,0,0,0,0,0,0,0,0,0.0545,0.0545,0,0.0594,0.0595,0.0595,0.0628,0.0628,0.0629,0.0629,0.0685,0.0687,0.0688,0,0,0,0,0,0,0,0,0,0,0,0,0,0.0439,0.0441,0.0545,0.0545,0.0546,0.0594,0.0595,0.0595,0.0628,0.0628,0.0629,0.0629,0.0685,0.0686,0.0688,0,0,0,0,0,0,0,0,0,0,0,0,0,0.0485,0.0442,0.0544,0.0569,0.0572,0.0594,0.0595,0.0595,0.0628,0.0628,0.0629,0.0629,0.0685,0.0686,0.0688,0.0689,0,0,0.0694,0.0694,0,0,0,0,0,0,0,0,0.0483,0.0489,0.0565,0.0567,0.0571,0.0607,0.0579,0.0628,0.0628,0.0605,0.0629,0.063,0.066,0.0664,0.067,0.0692,0.0694,0.0694,0.0695,0.0696,0.0696,0,0,0,0,0,0,0,0.048,0.0487,0.0563,0.0565,0.0569,0.0565,0.0572,0.0588,0.0628,0.0607,0.061,0.0617,0.0662,0.0668,0.0672,0.0695,0.0694,0.0695,0.0696,0.0697,0.0782,0.0783,0,0,0,0,0,0,0.0478,0.0484,0.0561,0.0564,0.0529,0.0566,0.0574,0.0593,0.0628,0.0634,0.0617,0.0619,0.0665,0.067,0.0674,0.0719,0.0696,0.0697,0.0698,0.0781,0.0783,0.0784,0,0,0,0,0,0,0.0476,0.0485,0.0559,0.0526,0.0535,0.0568,0.0589,0.0594,0.0628,0.0636,0.0642,0.0649,0.0666,0.0671,0.0708,0.072,0.0698,0.07,0.078,0.0782,0.0783,0.0782,0,0,0,0,0,0,0.0473,0.0484,0.0503,0.0526,0.0537,0.0588,0.0589,0.0595,0.0631,0.0635,0.0665,0.0669,0.0667,0.0706,0.071,0.0722,0.0701,0.0778,0.078,0.0783,0.078,0.0783,0.0786,0,0,0,0,0,0.0469,0.0484,0.0504,0.0513,0.056,0.0589,0.0595,0.0618,0.0632,0.065,0.0671,0.0669,0.0723,0.0708,0.0713,0.0725,0.0777,0.078,0.0782,0.0779,0.0783,0.0786,0,0,0,0,0,0,0.0452,0.049,0.0512,0.0541,0.0574,0.0596,0.0614,0.0635,0.0665,0.0674,0.0684,0.0689,0.0727,0.0732,0.0716,0.0759,0.075,0.0754,0.0746,0.075,0.0752,0.0799,0.0703,0,0,0,0,0,0.0457,0.0478,0.0518,0.0544,0.0565,0.0598,0.0616,0.0635,0.0661,0.0677,0.0702,0.0724,0.0738,0.075,0.0769,0.0791,0.0836,0.0805,0.0807,0.081,0.0853,0.0895,0.0905,0.0793,0.0793,0.0793,0,0,0.0461,0.0481,0.0498,0.0542,0.057,0.0597,0.0611,0.0647,0.0669,0.0677,0.0724,0.0741,0.0749,0.0773,0.079,0.078,0.087,0.0813,0.0814,0.0858,0.0898,0.0909,0.0919,0.0794,0.0794,0.0794,0,0,0.0465,0.05,0.052,0.0548,0.0592,0.0608,0.0627,0.0673,0.0698,0.0736,0.0747,0.0773,0.0805,0.0808,0.081,0.0843,0.0887,0.0857,0.0902,0.0939,0.0949,0.0958,0.1048,0.1065,0.0851,0.0851,0.0851,0,0.0461,0.0499,0.0531,0.0556,0.0579,0.0618,0.0647,0.0672,0.0724,0.0758,0.0754,0.083,0.0815,0.0854,0.0861,0.0847,0.0912,0.0878,0.0943,0.0953,0.0962,0.1052,0.1071,0.0851,0.0851,0.0851,0.0851,0,0.0484,0.0517,0.0531,0.0574,0.0604,0.0633,0.0674,0.0717,0.075,0.0783,0.0854,0.0854,0.0905,0.0891,0.0882,0.0949,0.099,0.0942,0.0931,0.0973,0.1066,0.1085,0.0852,0.0851,0.0851,0.0851,0,0,0.0468,0.053,0.0541,0.0571,0.0617,0.0648,0.069,0.075,0.0788,0.0851,0.0929,0.0934,0.0976,0.0986,0.0985,0.1015,0.1107,0.1024,0.1025,0.1111,0.1265,0.1116,0.1124,0.1081,0.1084,0.1087,0.1309,0,0.0477,0.0522,0.0552,0.0605,0.0635,0.0683,0.0717,0.0779,0.0816,0.0901,0.0954,0.1029,0.0997,0.1042,0.1063,0.1107,0.116,0.1057,0.1217,0.1223,0.1081,0.114,0.1096,0.1324,0.1329,0.1332,0.1334,0,0.049,0.0522,0.0571,0.0632,0.0654,0.0689,0.0765,0.0802,0.0908,0.0971,0.1066,0.1116,0.122,0.1168,0.1291,0.1243,0.1276,0.1297,0.1304,0.1187,0.1109,0.1271,0.137,0.1368,0.1365,0.1362,0.136,0,0.0468,0.0534,0.0574,0.0597,0.067,0.0714,0.076,0.0833,0.0888,0.1052,0.1141,0.1245,0.136,0.1397,0.1419,0.1393,0.1549,0.1494,0.1408,0.1401,0.147,0.1457,0.1592,0.1592,0.1591,0.159,0.159,0,0.0447,0.0482,0.0578,0.06,0.0663,0.0723,0.0793,0.0861,0.098,0.1066,0.1195,0.1277,0.143,0.1506,0.1495,0.1514,0.1605,0.1461,0.1444,0.1467,0.1451,0.1485,0.147,0.1599,0.1597,0.1595,0.1594,0,0.0392,0.0453,0.0501,0.0603,0.0649,0.0693,0.0823,0.0869,0.101,0.1136,0.1226,0.1398,0.1507,0.1587,0.1684,0.1624,0.1627,0.1604,0.1683,0.1661,0.1463,0.1445,0.1587,0.1584,0.1581,0.1578,0.1576,0,0.0367,0.0395,0.0499,0.052,0.0565,0.0662,0.0729,0.0889,0.0955,0.1148,0.1216,0.14,0.149,0.1556,0.1605,0.1647,0.1593,0.1644,0.1513,0.1491,0.1462,0.1449,0.1436,0.1572,0.1571,0.157,0.1569,0,0.0317,0.0354,0.0393,0.0457,0.0533,0.0612,0.0728,0.0785,0.0971,0.1114,0.1213,0.128,0.1419,0.1485,0.1558,0.1535,0.163,0.1613,0.1619,0.1496,0.1474,0.1445,0.1435,0.1559,0.156,0.1561,0.1562,0,0.028,0.0284,0.035,0.0403,0.0483,0.0543,0.0609,0.0733,0.0854,0.1075,0.1079,0.1234,0.1389,0.1423,0.1423,0.1458,0.1437,0.1402,0.1418,0.143,0.126,0.1201,0.1222,0,0,0,0,0,0.0222,0.0243,0.0287,0.0359,0.0427,0.0494,0.0612,0.0687,0.088,0.0928,0.1012,0.11,0.1183,0.1236,0.1244,0.1332,0.1426,0.1332,0.1388,0.1502,0.1514,0.1319,0,0,0,0,0,0,0.0195,0.0224,0.0277,0.0346,0.0375,0.0485,0.0554,0.0655,0.0702,0.0859,0.091,0.1038,0.1128,0.1182,0.1227,0.1247,0.126,0.1423,0.142,0.1495,0.1506,0.1516,0.1319,0,0,0,0,0]},{"header":{"parameterUnit":"m.s-1","parameterCategory":2,"la1":30.2991,"la2":30.254,"lo1":-89.0895,"lo2":-89.0444,"dx":0.0017,"dy":0.0017,"nx":28,"ny":28,"refTime":"2022-12-13T09:00:00:Z","depth":"4","parameterNumber":3,"parameterNumberName":"V-component_of_CURRENTS"},"data":[0,0,0,0,0,0,0,0,0,0,0,0,0,0,0,0,0,0,0,0,0,0,0,0,0,0,0,0,0,0,0,0,0,0,0,0,0,0,0,0,0,0,0,0,0,0,0,0,0,0,0,0,0,0,0,0,0,0,0.0343,0.0343,0,0.0307,0.0307,0.0306,0.0279,0.0278,0.0278,0.0278,0.0168,0.0165,0.0162,0,0,0,0,0,0,0,0,0,0,0,0,0,0.0368,0.0368,0.0344,0.0343,0.0343,0.0307,0.0307,0.0306,0.0279,0.0278,0.0278,0.0278,0.0169,0.0165,0.0162,0,0,0,0,0,0,0,0,0,0,0,0,0,0.0346,0.0368,0.0344,0.0326,0.0324,0.0307,0.0307,0.0306,0.0279,0.0278,0.0278,0.0278,0.017,0.0166,0.0161,0.014,0,0,0.0149,0.0147,0,0,0,0,0,0,0,0,0.0348,0.0345,0.0329,0.0327,0.0325,0.0298,0.0275,0.0247,0.0279,0.0295,0.0278,0.0278,0.0205,0.0198,0.0191,0.0135,0.013,0.0148,0.0146,0.0144,0.0143,0,0,0,0,0,0,0,0.0349,0.0347,0.0328,0.0328,0.0326,0.0312,0.0309,0.027,0.025,0.0293,0.0291,0.0289,0.0203,0.0196,0.0188,0.0129,0.0148,0.0145,0.0142,0.014,0.0035,0.0034,0,0,0,0,0,0,0.0357,0.0348,0.0329,0.0327,0.0337,0.0312,0.0308,0.0306,0.0251,0.0244,0.0289,0.0288,0.0203,0.0193,0.0184,0.0171,0.0144,0.014,0.0138,0.0035,0.0034,0.0034,0,0,0,0,0,0,0.0358,0.0356,0.0331,0.0338,0.0334,0.0312,0.031,0.0305,0.0293,0.025,0.024,0.0281,0.0202,0.019,0.0148,0.0166,0.0138,0.0134,0.0035,0.0035,0.0034,0.0135,0,0,0,0,0,0,0.0359,0.0356,0.036,0.0338,0.0334,0.0315,0.031,0.0305,0.0292,0.029,0.0239,0.0229,0.0201,0.0155,0.0144,0.016,0.0131,0.0036,0.0035,0.0034,0.0132,0.0138,0.0143,0,0,0,0,0,0.036,0.0365,0.0361,0.0359,0.0339,0.0315,0.0311,0.0295,0.0292,0.0283,0.0254,0.023,0.0144,0.0151,0.0139,0.0154,0.0036,0.0035,0.0035,0.013,0.0137,0.0143,0,0,0,0,0,0,0.0377,0.0363,0.0357,0.0358,0.0336,0.0311,0.0303,0.0294,0.0265,0.0261,0.0224,0.0211,0.0182,0.0144,0.0154,0.0118,0.0086,0.0083,0.0163,0.0169,0.0175,0.0162,0.0128,0,0,0,0,0,0.0384,0.0386,0.0362,0.0363,0.0349,0.0326,0.0316,0.0303,0.0276,0.0264,0.0227,0.0191,0.017,0.0151,0.0113,0.0091,0.0036,0.009,0.0096,0.0101,0.008,0.0026,0.0026,0.0032,0.0032,0.0032,0,0,0.0387,0.0385,0.0382,0.0367,0.0347,0.0337,0.0318,0.0299,0.0299,0.0254,0.0232,0.0202,0.0165,0.0148,0.0131,0.012,0.0071,0.01,0.0106,0.008,0.0026,0.0025,0.0025,0.0032,0.0032,0.0032,0,0,0.0399,0.0391,0.0393,0.0379,0.0357,0.0342,0.0337,0.0302,0.0292,0.0269,0.0247,0.0236,0.0175,0.0175,0.0166,0.0175,0.0099,0.0148,0.0173,0.0124,0.0123,0.0121,0.006,0.0052,0.0157,0.0157,0.0157,0,0.0412,0.0408,0.0387,0.0388,0.038,0.0347,0.0341,0.033,0.029,0.0284,0.0267,0.0218,0.0201,0.0206,0.0209,0.0194,0.0123,0.0163,0.0133,0.013,0.0127,0.0064,0.0054,0.0162,0.0161,0.0161,0.016,0,0.0414,0.0418,0.0413,0.0408,0.0397,0.0382,0.0363,0.0344,0.0328,0.0321,0.0301,0.0279,0.0255,0.0256,0.0234,0.0212,0.0156,0.0148,0.0124,0.0133,0.0065,0.0053,0.0169,0.0167,0.0165,0.0164,0,0,0.0427,0.042,0.042,0.0424,0.0405,0.0395,0.039,0.0376,0.0393,0.0349,0.0363,0.034,0.0321,0.0306,0.0288,0.0245,0.0191,0.0174,0.0169,0.0126,0.0039,0.0057,0.0045,0.0157,0.0155,0.0154,0.0005,0,0.0435,0.0446,0.0438,0.0445,0.044,0.0419,0.0424,0.0414,0.0412,0.0415,0.0393,0.0384,0.0346,0.0337,0.0297,0.0198,0.0158,0.0229,0.0022,0.0016,0.0043,0.0033,0.0149,-0.0005,-0.0008,-0.001,-0.0011,0,0.0435,0.0445,0.0455,0.0467,0.0462,0.0467,0.0472,0.0479,0.0481,0.0468,0.0456,0.0432,0.0371,0.0349,0.0183,0.0208,0.0127,0.0056,0.0049,0.0015,0.0012,-0.0023,-0.0034,-0.0032,-0.0031,-0.0029,-0.0028,0,0.0446,0.0457,0.0469,0.0471,0.0477,0.0479,0.0482,0.0494,0.0507,0.0499,0.0495,0.0431,0.0379,0.0258,0.0129,0.0122,-0.0057,-0.0065,-0.0118,-0.0119,-0.0134,-0.0131,-0.0164,-0.0164,-0.0164,-0.0163,-0.0163,0,0.0456,0.0469,0.0477,0.0485,0.0507,0.0503,0.054,0.0532,0.0544,0.0559,0.0524,0.0497,0.0338,0.024,0.0123,-0.0042,-0.006,-0.0135,-0.0158,-0.0088,-0.0078,-0.0142,-0.0138,-0.0169,-0.0168,-0.0167,-0.0166,0,0.0469,0.0475,0.0498,0.0509,0.0516,0.0535,0.0561,0.0596,0.0579,0.0595,0.0574,0.0489,0.0324,0.0214,0.0011,-0.0056,-0.0196,-0.0228,-0.0151,-0.0164,-0.0234,-0.0223,-0.0351,-0.0352,-0.0352,-0.0353,-0.0353,0,0.0475,0.0487,0.0518,0.0549,0.0558,0.0586,0.0613,0.0606,0.0627,0.0583,0.0578,0.0447,0.0379,0.0117,-0.0019,-0.0219,-0.0224,-0.0296,-0.0269,-0.0245,-0.0255,-0.0243,-0.0231,-0.0354,-0.0354,-0.0354,-0.0354,0,0.0492,0.0509,0.0528,0.0579,0.0615,0.0664,0.0684,0.0675,0.0658,0.0654,0.0558,0.0445,0.0285,0.0093,-0.0036,-0.0174,-0.026,-0.0302,-0.0303,-0.0279,-0.025,-0.0256,-0.0244,-0.0356,-0.0356,-0.0356,-0.0356,0,0.0504,0.0526,0.0556,0.0599,0.0662,0.0705,0.0713,0.0695,0.0688,0.0618,0.0572,0.0425,0.0321,0.0115,-0.0013,-0.0138,-0.0186,-0.0223,-0.0229,-0.0228,-0.0129,-0.007,-0.0156,0,0,0,0,0,0.05,0.0525,0.0579,0.0617,0.0684,0.0727,0.075,0.0746,0.0699,0.0642,0.0606,0.0466,0.0247,0.0143,0.0015,-0.0034,-0.0205,-0.0188,-0.0248,-0.0367,-0.0364,-0.0264,0,0,0,0,0,0,0.0503,0.0544,0.0569,0.0627,0.0668,0.0736,0.076,0.0737,0.0687,0.0628,0.051,0.0449,0.0235,0.0331,0.0021,-0.0021,-0.0075,-0.0289,-0.0292,-0.0368,-0.0366,-0.0364,-0.026,0,0,0,0,0]}]]